Regional Weather Roundup
Issued by NWS

Home | Current Version | Previous Version | Text Only | Print | Product List | Glossary Off
Versions: 1 2 3 4 5 6 7 8 9 10 11 12 13 14 15 16 17 18 19 20 21 22 23 24 25 26 27 28 29 30 31 32 33 34 35 36 37 38 39 40 41 42 43 44 45 46 47 48 49 50

000
ASUS45 KBOU 291907
RWRCO

WEATHER ROUNDUP FOR COLORADO
NATIONAL WEATHER SERVICE DENVER/BOULDER CO
100 PM MDT SAT AUG 29 2015

NOTE: "FAIR" INDICATES FEW OR NO CLOUDS BELOW 12000 FEET WITH NO
SIGNIFICANT WEATHER AND/OR OBSTRUCTIONS TO VISIBILITY.

COZ001>005-013-030-031-292000-
...NORTHWEST COLORADO...

CITY           SKY/WX    TMP DP  RH WIND       PRES   REMARKS
CRAIG          SUNNY     85  30  13 N7        30.28F
HAYDEN         NOT AVBL
MEEKER         SUNNY     84  36  18 VRB3      30.28F
MOUNT WERNER   NOT AVBL
STEAMBOAT SPGS SUNNY     78  34  20 S3        30.32F
WALDEN         SUNNY     73  32  21 E7        30.43F
$$

COZ006>008-011-292000-
...WEST CENTRAL VALLEYS...

CITY           SKY/WX    TMP DP  RH WIND       PRES   REMARKS
GRAND JUNCTION SUNNY     84  45  25 SE6       30.19F
MONTROSE       SUNNY     84  46  26 N8        30.27F
EAGLE          MOSUNNY   79  39  24 CALM      30.34F
RIFLE          SUNNY     82  43  25 VRB3      30.24F
DELTA          SUNNY     87  41  20 CALM      30.23F HAZE
NUCLA          SUNNY     82  39  21 CALM      30.31F
$$

COZ017>023-064>068-292000-
...SOUTHWEST COLORADO...

CITY           SKY/WX    TMP DP  RH WIND       PRES   REMARKS
DURANGO        MOSUNNY   77  44  30 VRB5      30.36F
CORTEZ         MOSUNNY   84  45  25 SE8       30.28F
PAGOSA SPRINGS SUNNY     76  39  26 W7        30.44F
TELLURIDE      CLOUDY    68  37  31 W3        30.54F
WOLF CREEK PAS MOSUNNY   55  41  58 W15G22    30.76F
$$

COZ009-010-012-014-032>034-037-058>063-292000-
...CENTRAL COLORADO...

CITY           SKY/WX    TMP DP  RH WIND       PRES   REMARKS
ASPEN          MOSUNNY   76  43  30 VRB5      30.40F
BUENA VISTA    MOSUNNY   76  38  26 E3        30.42F
COPPER MTN     PTSUNNY   61  30  31 W20G28    30.73F
BERTHOUD PASS  FAIR      54  41  62 N6        30.78F
COTTONWOOD PAS MOSUNNY   72  37  28 SE8       30.57F
GUNNISON       MOSUNNY   75  39  27 SW5       30.43F
KREMMLING      SUNNY     75  34  22 CALM      30.39F
LEADVILLE      PTSUNNY   65  29  25 N8        30.55F
MONARCH PASS   MOSUNNY   59  34  38 SW10G17   30.83F
SALIDA         MOSUNNY   80  38  22 CALM      30.45F
SUNLIGHT       CLOUDY    63  45  51 W5        30.67S
WILKERSON PASS SUNNY     64  36  34 SW3       30.70F
$$

COZ069>075-292000-
...SAN LUIS VALLEY/SANGRE DE CRISTO MOUNTAINS...

CITY           SKY/WX    TMP DP  RH WIND       PRES   REMARKS
ALAMOSA        SUNNY     74  41  30 S3        30.40F
LA VETA PASS   CLOUDY    63  37  39 NE3       30.61F
SAGUACHE       MOSUNNY   73  45  35 SE7       30.45F
$$

COZ035-036-038>040-292000-
...NORTHERN COLORADO FRONT RANGE...

CITY           SKY/WX    TMP DP  RH WIND       PRES   REMARKS
DENVER INTL AP MOSUNNY   87  40  19 VRB3G20   30.22F
DMNS CITY PARK   N/A     87  37  16 E6G17     30.20F
AURORA         MOSUNNY   86  41  20 SW5       30.24F
FRONT RANGE AP SUNNY    N/A N/A N/A MISG      30.24F
ERIE MUNI ARPT SUNNY     86  39  19 SW6       30.20F
BOULDER MUN AP SUNNY     82  45  26 N7        30.21F
CENTENNIAL     SUNNY     85  41  21 SE12      30.25F
BROOMFIELD     MOSUNNY   84  41  21 SE6       30.25F
FORT COLLINS   SUNNY     84  50  30 S12       30.19F
LONGMONT       SUNNY     88  47  24 N3        30.21F
$$

COZ041-046-047-076>085-087-088-292000-
...PIKES PEAK/PALMER DIVIDE AND SOUTHERN FOOTHILLS...

CITY           SKY/WX    TMP DP  RH WIND       PRES   REMARKS
COLO. SPRINGS  MOSUNNY   82  42  24 S14G24    30.32F
A. F. ACADEMY  MOSUNNY   79  44  28 S10G24    30.32F
ELLICOTT       SUNNY    N/A N/A N/A S12G20    30.32F
FALCON         SUNNY     77  44  31 MISG      30.38F
FORT CARSON    SUNNY     82  46  27 SE15      30.28F
LIMON          SUNNY     81  43  26 S12G20    30.27F
MONUMENT HILL  SUNNY     77  41  27 S16       30.36F
TRINIDAD       SUNNY     84  44  24 E10       30.30F
$$

COZ042>045-048>051-090-091-292000-
...NORTHEAST COLORADO...

CITY           SKY/WX    TMP DP  RH WIND       PRES   REMARKS
GREELEY ARPT   SUNNY     82  52  34 E7        30.20F
AKRON          SUNNY     87  37  17 S10G18    30.20F
BURLINGTON     SUNNY     85  46  25 SW9       30.21F
WRAY           SUNNY     92  44  18 S9        30.15F
STERLING       SUNNY     88  48  25 SW8       30.15F
HOLYOKE        SUNNY     90  50  25 S7        30.15F
FORT MORGAN    SUNNY     86  40  19 SE3       30.20F
$$

COZ086-089-092>099-292000-
...SOUTHEAST COLORADO...

CITY           SKY/WX    TMP DP  RH WIND       PRES   REMARKS
PUEBLO         SUNNY     87  47  24 SE12      30.22F
LA JUNTA       SUNNY     86  47  25 E6        30.22F
LAMAR          SUNNY     87  46  24 VRB3      30.17F
SPRINGFIELD      N/A     86  40  19 E9        30.22
$$



USA.gov is the U.S. government's official web portal to all federal, state and local government web resources and services.